This is the latest recevied weather packets stored in our database for station/object SQ9NFI-4. If no packets are shown the sender has not sent any weather packets the latest 10 day(s).
| Time | Temp. | Humidity | Pressure | Rain* | Wind** | Luminosity | Snow |
|---|---|---|---|---|---|---|---|
| 1778089478 | 20.56° C | 54% | 1006.8 hPa | 0 mm | - | 28 W/m² | - |
| 1778089178 | 20.56° C | 49% | 1006.8 hPa | 0 mm | - | 29 W/m² | - |
| 1778088878 | 20.56° C | 49% | 1006.8 hPa | 0 mm | - | 24 W/m² | - |
| 1778088578 | 20.56° C | 47% | 1006.8 hPa | 0 mm | - | 23 W/m² | - |
| 1778088278 | 20.56° C | 47% | 1006.8 hPa | 0 mm | - | 26 W/m² | - |
| 1778087978 | 20.56° C | 49% | 1006.8 hPa | 0 mm | - | 33 W/m² | - |
| 1778087678 | 20.56° C | 49% | 1006.8 hPa | 0 mm | - | 31 W/m² | - |
| 1778087378 | 20.56° C | 47% | 1006.8 hPa | 0 mm | - | 32 W/m² | - |
| 1778087078 | 21.11° C | 47% | 1006.8 hPa | 0 mm | - | 32 W/m² | - |
| 1778086778 | 21.11° C | 46% | 1006.4 hPa | 0 mm | - | 32 W/m² | - |
| 1778086478 | 21.11° C | 47% | 1006.4 hPa | 0 mm | - | 30 W/m² | - |
| 1778086178 | 21.67° C | 47% | 1006.4 hPa | 0 mm | - | 27 W/m² | - |
| 1778085878 | 21.67° C | 43% | 1006.8 hPa | 0 mm | - | 19 W/m² | - |
| 1778085578 | 21.67° C | 44% | 1006.8 hPa | 0 mm | - | 20 W/m² | - |
| 1778085278 | 21.67° C | 42% | 1006.8 hPa | 0 mm | - | 15 W/m² | - |
| 1778084978 | 22.22° C | 41% | 1006.8 hPa | 0 mm | - | 19 W/m² | - |
| 1778084678 | 22.78° C | 41% | 1006.8 hPa | 0 mm | - | 20 W/m² | - |
| 1778084378 | 22.78° C | 42% | 1006.8 hPa | 0 mm | - | 18 W/m² | - |
| 1778084078 | 22.78° C | 39% | 1006.8 hPa | 0 mm | - | 23 W/m² | - |
| 1778083778 | 23.33° C | 38% | 1006.4 hPa | 0 mm | - | 30 W/m² | - |
| 1778083478 | 24.44° C | 37% | 1006.4 hPa | 0 mm | - | 34 W/m² | - |
| 1778083178 | 25° C | 36% | 1006.8 hPa | 0 mm | - | 50 W/m² | - |
| 1778082878 | 26.11° C | 35% | 1006.8 hPa | 0 mm | - | 142 W/m² | - |
| 1778082578 | 25.56° C | 34% | 1006.8 hPa | 0 mm | - | 183 W/m² | - |
| 1778082278 | 25.56° C | 34% | 1006.8 hPa | 0 mm | - | 157 W/m² | - |
* Rain latest hour (hover to see other rain measurements)
** Current wind speed in m/s (hover to see current wind gust speed)